TimeEST,TemperatureF,Dew PointF,Humidity,Sea Level PressureIn,VisibilityMPH,Wind Direction,Wind SpeedMPH,Gust SpeedMPH,PrecipitationIn,Events,Conditions,WindDirDegrees,DateUTC
12:00 AM,44,40,82,30.27,,SE,5.8,,,,Overcast,140,2013-07-31 14:00:00
12:00 AM,44.6,41.0,87,30.24,6.2,SE,5.8,-,N/A,,Overcast,140,2013-07-31 14:00:00
12:30 AM,44.6,39.2,81,30.21,6.2,SE,4.6,-,N/A,,Overcast,140,2013-07-31 14:30:00
1:00 AM,40,38,91,30.27,,ENE,5.8,,,,,70,2013-07-31 15:00:00
1:00 AM,41.0,39.2,93,30.21,6.2,ENE,5.8,-,N/A,,Unknown,70,2013-07-31 15:00:00
1:30 AM,39.2,37.4,93,30.21,6.2,North,3.5,-,N/A,,Unknown,10,2013-07-31 15:30:00
2:00 AM,35.6,35.6,100,30.21,6.2,NNE,5.8,-,N/A,,Unknown,30,2013-07-31 16:00:00
2:30 AM,35.6,33.8,93,30.21,6.2,NNW,4.6,-,N/A,,Unknown,330,2013-07-31 16:30:00
3:00 AM,35,35,100,30.25,2,SSE,3.5,,,,,160,2013-07-31 17:00:00
3:00 AM,35.6,35.6,100,30.21,1.9,SSE,3.5,-,N/A,,Unknown,160,2013-07-31 17:00:00
3:09 AM,35.6,35.6,100,30.18,0.6,South,4.6,-,N/A,,Unknown,170,2013-07-31 17:09:00
3:30 AM,35.6,35.6,100,30.18,0.3,South,2.3,-,N/A,,Unknown,190,2013-07-31 17:30:00
3:45 AM,33.8,33.8,100,30.18,0.6,Calm,Calm,-,N/A,,Unknown,0,2013-07-31 17:45:00
4:00 AM,35,34,96,30.24,,Calm,Calm,,,,,,2013-07-31 18:00:00
4:00 AM,33.8,33.8,100,30.18,0.6,Calm,Calm,-,N/A,,Unknown,0,2013-07-31 18:00:00
4:01 AM,33.8,33.8,100,30.18,0.5,Calm,Calm,-,N/A,,Unknown,0,2013-07-31 18:01:00
4:30 AM,32.0,32.0,100,30.18,0.2,Calm,Calm,-,N/A,Fog,Fog,0,2013-07-31 18:30:00
5:00 AM,30.2,30.2,100,30.18,0.9,Calm,Calm,-,N/A,,Partly Cloudy,0,2013-07-31 19:00:00
5:30 AM,30.2,30.2,100,30.21,0.9,SE,4.6,-,N/A,,Partly Cloudy,130,2013-07-31 19:30:00
5:55 AM,32.0,32.0,100,30.21,3.7,Calm,Calm,-,N/A,,Partly Cloudy,0,2013-07-31 19:55:00
6:00 AM,32,32,98,30.25,,Calm,Calm,,,,,,2013-07-31 20:00:00
6:00 AM,32.0,32.0,100,30.21,4.3,Calm,Calm,-,N/A,,Partly Cloudy,0,2013-07-31 20:00:00
6:20 AM,30.2,30.2,100,30.21,2.5,North,5.8,-,N/A,,Partly Cloudy,360,2013-07-31 20:20:00
6:26 AM,32.0,30.2,93,30.21,1.2,North,4.6,-,N/A,,Partly Cloudy,360,2013-07-31 20:26:00
6:30 AM,32.0,30.2,93,30.21,0.2,North,4.6,-,N/A,Fog,Fog,10,2013-07-31 20:30:00
7:00 AM,31,31,97,30.26,,North,3.5,,,,,0,2013-07-31 21:00:00
7:00 AM,30.2,30.2,100,30.21,0.2,North,3.5,-,N/A,Fog,Fog,360,2013-07-31 21:00:00
7:30 AM,28.4,28.4,100,30.21,0.2,Calm,Calm,-,N/A,Fog,Fog,0,2013-07-31 21:30:00
7:50 AM,32.0,32.0,100,30.21,1.9,Calm,Calm,-,N/A,Fog,Patches of Fog,0,2013-07-31 21:50:00
8:00 AM,33.8,33.8,100,30.21,1.9,Calm,Calm,-,N/A,Fog,Patches of Fog,0,2013-07-31 22:00:00
8:30 AM,37.4,37.4,100,30.21,4.3,Calm,Calm,-,N/A,Fog,Patches of Fog,0,2013-07-31 22:30:00
9:00 AM,40,39,96,30.27,,Calm,Calm,,,,,,2013-07-31 23:00:00
9:00 AM,41.0,39.2,93,30.21,3.7,Calm,Calm,-,N/A,,Scattered Clouds,0,2013-07-31 23:00:00
9:30 AM,42.8,41.0,93,30.21,4.3,SSE,4.6,-,N/A,,Scattered Clouds,150,2013-07-31 23:30:00
10:00 AM,46,40,74,30.25,,ENE,3.5,,,,,70,2013-08-01 00:00:00
10:00 AM,46.4,41.0,81,30.21,5.0,ENE,3.5,-,N/A,,Partly Cloudy,70,2013-08-01 00:00:00
10:30 AM,48.2,41.0,76,30.21,6.2,SE,3.5,-,N/A,,Partly Cloudy,130,2013-08-01 00:30:00
11:00 AM,50.0,41.0,71,30.18,6.2,NNW,3.5,-,N/A,,Partly Cloudy,330,2013-08-01 01:00:00
11:30 AM,53.6,41.0,62,30.18,6.2,North,5.8,-,N/A,,Partly Cloudy,360,2013-08-01 01:30:00
12:00 PM,55.4,41.0,58,30.15,6.2,NNW,5.8,-,N/A,,Partly Cloudy,330,2013-08-01 02:00:00
12:30 PM,53.6,39.2,58,30.15,6.2,North,6.9,-,N/A,,Partly Cloudy,360,2013-08-01 02:30:00
1:00 PM,57.2,41.0,55,30.12,6.2,North,6.9,-,N/A,,Partly Cloudy,350,2013-08-01 03:00:00
1:30 PM,57.2,41.0,55,30.12,6.2,NW,6.9,-,N/A,,Partly Cloudy,320,2013-08-01 03:30:00
2:00 PM,57.2,39.2,51,30.09,6.2,North,8.1,-,N/A,,Partly Cloudy,360,2013-08-01 04:00:00
2:30 PM,57.2,39.2,51,30.09,6.2,North,8.1,-,N/A,,Partly Cloudy,10,2013-08-01 04:30:00
3:00 PM,57,39,40,30.14,,NNW,8.1,,,,,340,2013-08-01 05:00:00
3:00 PM,57.2,39.2,51,30.09,6.2,NNW,8.1,-,N/A,,Partly Cloudy,340,2013-08-01 05:00:00
3:30 PM,57.2,39.2,51,30.09,6.2,NNW,10.4,-,N/A,,Partly Cloudy,340,2013-08-01 05:30:00
4:00 PM,57.2,39.2,51,30.09,6.2,North,10.4,-,N/A,,Partly Cloudy,360,2013-08-01 06:00:00
4:30 PM,55.4,39.2,54,30.09,6.2,NNW,10.4,-,N/A,,Partly Cloudy,340,2013-08-01 06:30:00
5:00 PM,53.6,39.2,58,30.09,6.2,North,9.2,-,N/A,,Partly Cloudy,350,2013-08-01 07:00:00
5:30 PM,50.0,39.2,66,30.09,6.2,NNW,8.1,-,N/A,,Partly Cloudy,340,2013-08-01 07:30:00
6:00 PM,49,39,59,30.16,,North,6.9,,,,,0,2013-08-01 08:00:00
6:00 PM,50.0,39.2,66,30.12,6.2,North,6.9,-,N/A,,Mostly Cloudy,360,2013-08-01 08:00:00
6:30 PM,48.2,39.2,71,30.12,6.2,NNE,4.6,-,N/A,,Mostly Cloudy,30,2013-08-01 08:30:00
7:00 PM,47,38,63,30.16,,NNE,5.8,,,,,20,2013-08-01 09:00:00
7:00 PM,48.2,39.2,71,30.12,6.2,NNE,5.8,-,N/A,,Scattered Clouds,20,2013-08-01 09:00:00
7:30 PM,46.4,37.4,71,30.12,6.2,NE,4.6,-,N/A,,Partly Cloudy,40,2013-08-01 09:30:00
8:00 PM,41.0,35.6,81,30.12,6.2,NE,4.6,-,N/A,,Partly Cloudy,50,2013-08-01 10:00:00
8:30 PM,39.2,35.6,87,30.12,6.2,East,5.8,-,N/A,,Partly Cloudy,100,2013-08-01 10:30:00
9:00 PM,38,36,88,30.16,,East,5.8,,,,,80,2013-08-01 11:00:00
9:00 PM,39.2,35.6,87,30.12,6.2,East,5.8,-,N/A,,Unknown,80,2013-08-01 11:00:00
9:30 PM,35.6,32.0,87,30.12,6.2,East,1.2,-,N/A,,Unknown,80,2013-08-01 11:30:00
10:00 PM,35,32,85,30.15,,East,2.3,,,,,90,2013-08-01 12:00:00
10:00 PM,35.6,32.0,87,30.12,6.2,East,2.3,-,N/A,,Unknown,90,2013-08-01 12:00:00
10:30 PM,35.6,33.8,93,30.12,6.2,Calm,Calm,-,N/A,,Unknown,0,2013-08-01 12:30:00
11:00 PM,33.8,32.0,93,30.12,6.2,Calm,Calm,-,N/A,,Unknown,0,2013-08-01 13:00:00
11:30 PM,33.8,32.0,93,30.09,6.2,Calm,Calm,-,N/A,,Unknown,0,2013-08-01 13:30:00